| time (UTC) | temp F | wind direction | speed MPH | gust MPH | rain 1hr in | rain 24hr in | rain mn in | humidity % | barometer mb |
| 20260906161005 | 63 | 238 | 0.0 | 1.0 | 0.00 | 0.00 | 0.00 | 73 | 1021.4 |
| 20260906160008 | 63 | 255 | 0.0 | 5.0 | 0.00 | 0.00 | 0.00 | 73 | 1021.4 |
| 20260906155005 | 63 | 254 | 0.0 | 1.0 | 0.00 | 0.00 | 0.00 | 72 | 1021.4 |
| 20260906154005 | 64 | 210 | 0.0 | 3.0 | 0.00 | 0.00 | 0.00 | 70 | 1021.4 |
| 20260906153008 | 64 | 260 | 0.0 | 6.0 | 0.00 | 0.00 | 0.00 | 70 | 1021.3 |
| 20260906152005 | 64 | 251 | 0.0 | 3.0 | 0.00 | 0.00 | 0.00 | 70 | 1021.3 |
| 20260906151005 | 64 | 291 | 0.0 | 6.0 | 0.00 | 0.00 | 0.00 | 70 | 1021.1 |
| 20260906150008 | 65 | 285 | 0.0 | 3.0 | 0.00 | 0.00 | 0.00 | 68 | 1021.2 |
| 20260906145005 | 65 | 234 | 0.0 | 5.0 | 0.00 | 0.00 | 0.00 | 68 | 1021.4 |
| 20260906144006 | 65 | 260 | 0.0 | 3.0 | 0.00 | 0.00 | 0.00 | 69 | 1021.4 |
| 20260906143007 | 65 | 257 | 0.0 | 3.0 | 0.00 | 0.00 | 0.00 | 66 | 1021.4 |
| 20260906142005 | 65 | 243 | 0.0 | 5.0 | 0.00 | 0.00 | 0.00 | 68 | 1021.4 |
| 20260906141006 | 65 | 248 | 0.0 | 3.0 | 0.00 | 0.00 | 0.00 | 66 | 1021.4 |
| 20260906140007 | 66 | 271 | 0.0 | 3.0 | 0.00 | 0.00 | 0.00 | 66 | 1021.4 |
| 20260906135005 | 65 | 248 | 0.0 | 7.0 | 0.00 | 0.00 | 0.00 | 67 | 1021.2 |
| 20260906134005 | 65 | 278 | 0.0 | 3.0 | 0.00 | 0.00 | 0.00 | 66 | 1021.3 |
| 20260906133008 | 65 | 248 | 0.0 | 3.0 | 0.00 | 0.00 | 0.00 | 67 | 1021.3 |
| 20260906132005 | 64 | 273 | 0.0 | 10.0 | 0.00 | 0.00 | 0.00 | 66 | 1021.0 |
| 20260906131006 | 65 | 297 | 0.0 | 3.0 | 0.00 | 0.00 | 0.00 | 68 | 1021.3 |
| 20260906130007 | 65 | 249 | 0.0 | 10.0 | 0.00 | 0.00 | 0.00 | 67 | 1021.3 |
| 20260906125005 | 65 | 245 | 0.0 | 3.0 | 0.00 | 0.00 | 0.00 | 68 | 1021.2 |
| 20260906124005 | 65 | 281 | 0.0 | 3.0 | 0.00 | 0.00 | 0.00 | 70 | 1021.2 |
| 20260906123008 | 64 | 276 | 0.0 | 5.0 | 0.00 | 0.00 | 0.00 | 68 | 1021.2 |
| 20260906122005 | 64 | 288 | 0.0 | 6.0 | 0.00 | 0.00 | 0.00 | 68 | 1021.0 |
| 20260906121006 | 64 | 279 | 0.0 | 6.0 | 0.00 | 0.00 | 0.00 | 68 | 1021.0 |
| 20260906120008 | 64 | 290 | 0.0 | 6.0 | 0.00 | 0.00 | 0.00 | 70 | 1021.0 |
| 20260906115006 | 64 | 275 | 0.0 | 5.0 | 0.00 | 0.00 | 0.00 | 73 | 1020.9 |
| 20260906114005 | 64 | 279 | 0.0 | 3.0 | 0.00 | 0.00 | 0.00 | 73 | 1020.9 |
| 20260906113007 | 64 | 288 | 0.0 | 7.0 | 0.00 | 0.00 | 0.00 | 73 | 1021.0 |
| 20260906112006 | 64 | 267 | 0.0 | 6.0 | 0.00 | 0.00 | 0.00 | 74 | 1021.0 |
| 20260906111006 | 64 | 267 | 0.0 | 5.0 | 0.00 | 0.00 | 0.00 | 75 | 1020.9 |
| 20260906110008 | 64 | 271 | 0.0 | 3.0 | 0.00 | 0.00 | 0.00 | 76 | 1020.8 |
| 20260906105006 | 64 | 281 | 0.0 | 3.0 | 0.00 | 0.00 | 0.00 | 76 | 1020.8 |
| 20260906104006 | 64 | 277 | 0.0 | 3.0 | 0.00 | 0.00 | 0.00 | 76 | 1020.8 |
| 20260906103008 | 63 | 268 | 0.0 | 3.0 | 0.00 | 0.00 | 0.00 | 79 | 1020.6 |
| 20260906102006 | 63 | 281 | 0.0 | 5.0 | 0.00 | 0.00 | 0.00 | 77 | 1020.4 |
| 20260906101005 | 63 | 282 | 0.0 | 3.0 | 0.00 | 0.00 | 0.00 | 77 | 1020.2 |
| 20260906100008 | 63 | 269 | 1.0 | 6.0 | 0.00 | 0.00 | 0.00 | 79 | 1020.3 |
| 20260906095006 | 62 | 302 | 0.0 | 7.0 | 0.00 | 0.00 | 0.00 | 78 | 1020.1 |
| 20260906094006 | 62 | 302 | 0.0 | 3.0 | 0.00 | 0.00 | 0.00 | 80 | 1019.9 |
| 20260906093008 | 61 | 292 | 0.0 | 6.0 | 0.00 | 0.00 | 0.00 | 80 | 1019.9 |
| 20260906092005 | 61 | 281 | 1.0 | 9.0 | 0.00 | 0.00 | 0.00 | 80 | 1019.8 |
| 20260906091006 | 61 | 302 | 0.0 | 3.0 | 0.00 | 0.00 | 0.00 | 80 | 1019.7 |
| 20260906090008 | 61 | 279 | 1.0 | 13.0 | 0.00 | 0.00 | 0.00 | 80 | 1019.6 |
| 20260906085005 | 61 | 296 | 1.0 | 7.0 | 0.00 | 0.00 | 0.00 | 80 | 1019.4 |
| 20260906084005 | 61 | 287 | 0.0 | 3.0 | 0.00 | 0.00 | 0.00 | 82 | 1019.4 |
| 20260906083008 | 60 | 300 | 0.0 | 12.0 | 0.00 | 0.00 | 0.00 | 82 | 1019.4 |
| 20260906082006 | 60 | 303 | 1.0 | 12.0 | 0.00 | 0.00 | 0.00 | 82 | 1019.4 |
| 20260906081005 | 60 | 280 | 1.0 | 13.0 | 0.00 | 0.00 | 0.00 | 82 | 1019.2 |
| 20260906080008 | 60 | 302 | 1.0 | 15.0 | 0.00 | 0.00 | 0.00 | 84 | 1019.0 |
| 20260906075005 | 59 | 311 | 5.0 | 15.0 | 0.00 | 0.00 | 0.00 | 83 | 1018.8 |
| 20260906074006 | 59 | 289 | 5.0 | 13.0 | 0.00 | 0.00 | 0.00 | 83 | 1018.8 |
| 20260906073008 | 59 | 288 | 1.0 | 13.0 | 0.00 | 0.00 | 0.00 | 84 | 1018.8 |
| 20260906072005 | 58 | 310 | 2.0 | 14.0 | 0.00 | 0.00 | 0.00 | 84 | 1018.6 |
| 20260906071005 | 58 | 300 | 1.0 | 20.0 | 0.00 | 0.00 | 0.00 | 84 | 1018.3 |
| 20260906070007 | 58 | 299 | 5.0 | 20.0 | 0.00 | 0.00 | 0.00 | 84 | 1018.3 |
| 20260906065006 | 58 | 300 | 5.0 | 20.0 | 0.00 | 0.00 | 0.00 | 85 | 1018.3 |
| 20260906064005 | 58 | 293 | 3.0 | 18.0 | 0.00 | 0.00 | 0.00 | 85 | 1018.2 |
| 20260906063011 | 58 | 298 | 0.0 | 6.0 | 0.00 | 0.00 | 0.00 | 86 | 1018.1 |
| 20260906062007 | 57 | 286 | 2.0 | 10.0 | 0.00 | 0.00 | 0.00 | 86 | 1017.8 |
| 20260906061007 | 57 | 280 | 2.0 | 15.0 | 0.00 | 0.00 | 0.00 | 86 | 1017.8 |
| 20260906060010 | 57 | 307 | 1.0 | 15.0 | 0.00 | 0.00 | 0.00 | 86 | 1017.8 |
| 20260906055009 | 57 | 297 | 2.0 | 15.0 | 0.00 | 0.00 | 0.00 | 86 | 1017.6 |
| 20260906054009 | 57 | 294 | 1.0 | 13.0 | 0.00 | 0.00 | 0.00 | 86 | 1017.4 |
| 20260906053009 | 57 | 290 | 3.0 | 15.0 | 0.00 | 0.00 | 0.00 | 86 | 1017.3 |
| 20260906052006 | 57 | 297 | 7.0 | 18.0 | 0.00 | 0.00 | 0.00 | 87 | 1017.2 |
| 20260906051006 | 57 | 300 | 2.0 | 14.0 | 0.00 | 0.00 | 0.00 | 87 | 1017.2 |
| 20260906050007 | 57 | 294 | 2.0 | 15.0 | 0.00 | 0.00 | 0.00 | 87 | 1017.1 |
| 20260906045005 | 57 | 293 | 2.0 | 17.0 | 0.00 | 0.00 | 0.00 | 87 | 1017.0 |
| 20260906044006 | 57 | 293 | 1.0 | 16.0 | 0.00 | 0.00 | 0.00 | 86 | 1016.8 |
| 20260906043009 | 57 | 297 | 2.0 | 20.0 | 0.00 | 0.00 | 0.00 | 86 | 1016.7 |
| 20260906042005 | 57 | 281 | 1.0 | 20.0 | 0.00 | 0.00 | 0.00 | 86 | 1016.5 |
| 20260906041006 | 57 | 289 | 3.0 | 17.0 | 0.00 | 0.00 | 0.00 | 86 | 1016.3 |
| 20260906040008 | 57 | 296 | 4.0 | 20.0 | 0.00 | 0.00 | 0.00 | 86 | 1016.2 |
| 20260906035006 | 57 | 288 | 3.0 | 14.0 | 0.00 | 0.00 | 0.00 | 86 | 1015.8 |
| 20260906034006 | 57 | 292 | 1.0 | 14.0 | 0.00 | 0.00 | 0.00 | 85 | 1015.7 |
| 20260906033008 | 57 | 296 | 4.0 | 30.0 | 0.00 | 0.00 | 0.00 | 85 | 1015.7 |
| 20260906032005 | 57 | 290 | 4.0 | 25.0 | 0.00 | 0.00 | 0.00 | 85 | 1015.6 |
| 20260906031005 | 57 | 298 | 9.0 | 21.0 | 0.00 | 0.00 | 0.00 | 85 | 1015.6 |
| 20260906030008 | 58 | 290 | 3.0 | 25.0 | 0.00 | 0.00 | 0.00 | 84 | 1015.5 |
| 20260906025005 | 58 | 302 | 13.0 | 26.0 | 0.00 | 0.00 | 0.00 | 85 | 1015.2 |
| 20260906024005 | 58 | 298 | 5.0 | 26.0 | 0.00 | 0.00 | 0.00 | 85 | 1015.2 |
| 20260906023008 | 58 | 294 | 7.0 | 26.0 | 0.00 | 0.00 | 0.00 | 85 | 1015.1 |
| 20260906022006 | 58 | 297 | 9.0 | 26.0 | 0.00 | 0.00 | 0.00 | 85 | 1014.9 |
| 20260906021005 | 58 | 304 | 7.0 | 26.0 | 0.00 | 0.00 | 0.00 | 84 | 1014.8 |
| 20260906020009 | 57 | 290 | 7.0 | 23.0 | 0.00 | 0.00 | 0.00 | 85 | 1014.6 |
| 20260906015006 | 58 | 305 | 6.0 | 23.0 | 0.00 | 0.00 | 0.00 | 85 | 1014.7 |
| 20260906014005 | 58 | 294 | 2.0 | 20.0 | 0.00 | 0.00 | 0.00 | 85 | 1014.6 |
| 20260906013007 | 58 | 290 | 5.0 | 26.0 | 0.00 | 0.00 | 0.00 | 84 | 1014.5 |
| 20260906012005 | 58 | 283 | 6.0 | 20.0 | 0.00 | 0.00 | 0.00 | 84 | 1014.5 |
| 20260906011006 | 58 | 291 | 2.0 | 16.0 | 0.00 | 0.00 | 0.00 | 84 | 1014.3 |
| 20260906010008 | 57 | 298 | 1.0 | 22.0 | 0.00 | 0.00 | 0.00 | 84 | 1014.1 |
| 20260906005005 | 57 | 280 | 2.0 | 21.0 | 0.00 | 0.00 | 0.00 | 84 | 1014.1 |
| 20260906004006 | 58 | 283 | 2.0 | 23.0 | 0.00 | 0.00 | 0.00 | 84 | 1014.0 |
| 20260906003008 | 58 | 292 | 5.0 | 32.0 | 0.00 | 0.00 | 0.00 | 84 | 1013.9 |
| 20260906002006 | 58 | 283 | 6.0 | 24.0 | 0.00 | 0.00 | 0.00 | 85 | 1013.8 |
| 20260906001005 | 58 | 299 | 5.0 | 26.0 | 0.00 | 0.00 | 0.00 | 85 | 1013.5 |
| 20260906000008 | 58 | 297 | 6.0 | 23.0 | 0.00 | 0.00 | 0.00 | 84 | 1013.5 |
| 20260905235006 | 58 | 291 | 2.0 | 25.0 | 0.00 | 0.00 | 0.00 | 84 | 1013.4 |
| 20260905234005 | 58 | 279 | 3.0 | 20.0 | 0.00 | 0.00 | 0.00 | 84 | 1013.2 |
| 20260905233008 | 58 | 283 | 1.0 | 26.0 | 0.00 | 0.00 | 0.00 | 83 | 1013.1 |
| 20260905232006 | 58 | 289 | 4.0 | 23.0 | 0.00 | 0.00 | 0.00 | 83 | 1013.0 |
| 20260905231005 | 58 | 285 | 3.0 | 24.0 | 0.00 | 0.00 | 0.00 | 83 | 1012.9 |
| 20260905230007 | 58 | 283 | 5.0 | 17.0 | 0.00 | 0.00 | 0.00 | 82 | 1012.9 |
| 20260905225006 | 58 | 286 | 5.0 | 25.0 | 0.00 | 0.00 | 0.00 | 82 | 1012.6 |
| 20260905224006 | 58 | 290 | 4.0 | 20.0 | 0.00 | 0.00 | 0.00 | 82 | 1012.5 |
| 20260905223008 | 58 | 298 | 5.0 | 20.0 | 0.00 | 0.00 | 0.00 | 82 | 1012.4 |
| 20260905222006 | 58 | 281 | 3.0 | 20.0 | 0.00 | 0.00 | 0.00 | 82 | 1012.3 |
| 20260905221005 | 58 | 287 | 2.0 | 20.0 | 0.00 | 0.00 | 0.00 | 82 | 1012.0 |
| 20260905220008 | 58 | 282 | 1.0 | 17.0 | 0.00 | 0.00 | 0.00 | 82 | 1012.0 |
| 20260905215006 | 58 | 292 | 2.0 | 22.0 | 0.00 | 0.00 | 0.00 | 81 | 1011.8 |
| 20260905214005 | 58 | 287 | 1.0 | 10.0 | 0.00 | 0.00 | 0.00 | 82 | 1011.5 |
| 20260905213007 | 58 | 277 | 1.0 | 12.0 | 0.00 | 0.00 | 0.00 | 83 | 1011.5 |
| 20260905212006 | 59 | 282 | 1.0 | 16.0 | 0.00 | 0.00 | 0.00 | 82 | 1011.4 |
| 20260905211005 | 59 | 279 | 0.0 | 13.0 | 0.00 | 0.00 | 0.00 | 82 | 1011.2 |
| 20260905210008 | 59 | 277 | 1.0 | 13.0 | 0.00 | 0.00 | 0.00 | 82 | 1011.1 |
| 20260905205006 | 59 | 262 | 0.0 | 10.0 | 0.00 | 0.00 | 0.00 | 82 | 1011.0 |
| 20260905204006 | 59 | 276 | 1.0 | 13.0 | 0.00 | 0.00 | 0.00 | 82 | 1010.9 |
| 20260905203008 | 59 | 281 | 1.0 | 7.0 | 0.00 | 0.00 | 0.00 | 82 | 1010.9 |
| 20260905202006 | 59 | 277 | 1.0 | 14.0 | 0.00 | 0.00 | 0.00 | 83 | 1010.8 |
| 20260905201005 | 59 | 271 | 1.0 | 20.0 | 0.00 | 0.00 | 0.00 | 82 | 1010.6 |
| 20260905200008 | 59 | 262 | 1.0 | 12.0 | 0.00 | 0.00 | 0.00 | 82 | 1010.5 |
| 20260905195006 | 59 | 273 | 0.0 | 9.0 | 0.00 | 0.00 | 0.00 | 80 | 1010.4 |
| 20260905194006 | 59 | 273 | 2.0 | 15.0 | 0.00 | 0.00 | 0.00 | 79 | 1010.4 |
| 20260905193008 | 59 | 273 | 1.0 | 7.0 | 0.00 | 0.00 | 0.00 | 79 | 1010.3 |
| 20260905192006 | 59 | 270 | 1.0 | 13.0 | 0.00 | 0.00 | 0.00 | 79 | 1010.2 |
| 20260905191005 | 59 | 273 | 2.0 | 15.0 | 0.00 | 0.00 | 0.00 | 79 | 1010.0 |
| 20260905190018 | 59 | 282 | 2.0 | 16.0 | 0.00 | 0.01 | 0.00 | 80 | 1010.0 |
| 20260905185006 | 59 | 283 | 1.0 | 16.0 | 0.00 | 0.01 | 0.00 | 80 | 1009.9 |
| 20260905184006 | 58 | 271 | 2.0 | 23.0 | 0.00 | 0.04 | 0.00 | 80 | 1009.9 |
| 20260905183008 | 58 | 271 | 1.0 | 20.0 | 0.00 | 0.04 | 0.00 | 83 | 1009.8 |
| 20260905182005 | 58 | 271 | 0.0 | 5.0 | 0.00 | 0.04 | 0.00 | 84 | 1009.6 |
| 20260905181005 | 59 | 297 | 0.0 | 16.0 | 0.00 | 0.05 | 0.00 | 83 | 1009.7 |
| 20260905180008 | 59 | 250 | 1.0 | 15.0 | 0.00 | 0.05 | 0.00 | 80 | 1009.3 |
| 20260905175005 | 60 | 261 | 1.0 | 16.0 | 0.00 | 0.05 | 0.00 | 79 | 1009.3 |
| 20260905174005 | 60 | 289 | 1.0 | 10.0 | 0.00 | 0.05 | 0.00 | 77 | 1009.1 |
| 20260905173008 | 60 | 271 | 1.0 | 15.0 | 0.00 | 0.05 | 0.00 | 77 | 1008.9 |
| 20260905172006 | 60 | 271 | 1.0 | 16.0 | 0.00 | 0.05 | 0.00 | 76 | 1008.8 |
| 20260905171005 | 60 | 282 | 2.0 | 17.0 | 0.00 | 0.05 | 0.00 | 75 | 1008.8 |
| 20260905170007 | 61 | 270 | 0.0 | 9.0 | 0.00 | 0.05 | 0.00 | 77 | 1008.7 |
| 20260905165005 | 61 | 244 | 0.0 | 9.0 | 0.00 | 0.05 | 0.00 | 79 | 1008.7 |
| 20260905164006 | 61 | 244 | 0.0 | 7.0 | 0.00 | 0.05 | 0.00 | 78 | 1008.5 |
| 20260905163008 | 61 | 257 | 1.0 | 7.0 | 0.00 | 0.05 | 0.00 | 78 | 1008.3 |
| 20260905162006 | 61 | 281 | 0.0 | 7.0 | 0.00 | 0.05 | 0.00 | 78 | 1008.3 |